Regional Weather Roundup
Issued by NWS

Home | Current Version | Previous Version | Graphics & Text | Print | Product List | Glossary On
Versions: 1 2 3 4 5 6 7 8 9 10 11 12 13 14 15 16 17 18 19 20 21 22 23 24 25 26 27 28 29 30 31 32 33 34 35 36 37 38 39 40 41 42 43 44 45 46 47 48 49 50
000
ASUS43 KOAX 300202
RWRNE

WEATHER ROUNDUP FOR NEBRASKA
NATIONAL WEATHER SERVICE OMAHA NE
800 PM CST THU JAN 29 2015

NOTES: SATELLITE DATA IS BEING USED TO AUGMENT CLOUD COVER ABOVE
       12000 FEET.
       "FAIR" INDICATES FEW OR NO CLOUDS BELOW 12,000 FEET WITH NO
       SIGNIFICANT WEATHER AND/OR OBSTRUCTIONS TO VISIBILITY.

  * THESE STATIONS DO NOT REPORT WEATHER SUCH AS RAIN...SNOW OR FOG.

NEZ001>004-019>022-054>056-300300-
NEBRASKA PANHANDLE

CITY           SKY/WX    TMP DP  RH WIND       PRES   REMARKS
SCOTTSBLUFF    CLEAR     30  23  75 E8        30.40S WCI  22
ALLIANCE       CLEAR     23  15  71 SE8       30.40F WCI  14
CHADRON        CLEAR     30  19  63 SE3       30.38F
SIDNEY         CLEAR     29  16  58 SE7       30.42S WCI  22
$$

NEZ057>060-069>072-079>082-300300-
SOUTHWEST NEBRASKA

CITY           SKY/WX    TMP DP  RH WIND       PRES   REMARKS
NORTH PLATTE   PTCLDY    24  15  68 CALM      30.47S
IMPERIAL         N/A     29  18  63 CALM      30.46F
MCCOOK         PTCLDY    29  18  63 CALM      30.48S
$$

NEZ005>010-023>029-035>040-094-300300-
NORTH CENTRAL NEBRASKA

CITY           SKY/WX    TMP DP  RH WIND       PRES   REMARKS
VALENTINE      CLEAR     28  18  66 S3        30.45S
BROKEN BOW     CLEAR     25  17  72 CALM      30.48R
ORD            CLEAR     26  18  71 CALM      30.48S
$$

NEZ041-046>049-061>064-073>077-083>087-300300-
SOUTH CENTRAL NEBRASKA

CITY           SKY/WX    TMP DP  RH WIND       PRES   REMARKS
GRAND ISLAND   CLEAR     28  18  66 CALM      30.50S
HASTINGS       FAIR      31  18  58 W3        30.50R
KEARNEY *      CLEAR     34  19  55 NW3       30.50S
$$

NEZ011>018-030>034-042>045-300300-
NORTHEAST NEBRASKA

CITY           SKY/WX    TMP DP  RH WIND       PRES   REMARKS
NORFOLK        CLEAR     27  21  78 N6        30.51R WCI  20
COLUMBUS *     CLEAR     27  18  69 N6        30.52R WCI  20
TEKAMAH        MOCLDY    32  22  66 N13       30.53R WCI  22
$$

NEZ050>053-065>068-078-088>093-300300-
SOUTHEAST NEBRASKA

CITY           SKY/WX    TMP DP  RH WIND       PRES   REMARKS
LINCOLN        CLEAR     25  20  81 N9        30.52S WCI  15
OMAHA EPPLEY   CLEAR     31  23  72 N13       30.52R WCI  21
FALLS CITY     CLEAR     28  20  71 W5        30.50S WCI  23
$$

NEZ044-045-051>053-067-300300-
OMAHA AREA

CITY           SKY/WX    TMP DP  RH WIND       PRES   REMARKS
OMAHA EPPLEY   CLEAR     31  23  72 N13       30.52R WCI  21
OFFUTT AFB     CLEAR     31  24  72 N3        30.51R
$$



USA.gov is the U.S. government's official web portal to all federal, state and local government web resources and services.